Weather in Kulakovo

Russia / Tyumen Oblast     57°13′25″N   65°16′11″E
temp.,
°C
wind,
m/s
gust,
m/s
humid.,
%
clouds,
%
prec.,
mm/h
press.,
hPa
HPBL,
m
27 february, sat
sat2723:00−24s3310053 0.1 102826
02:00−26s349778 0.0 102746
05:00−29sse349675 0.0 102761
08:00−31sse469647 0.0 102690
11:00−25sse479327 0.0 1026279
14:00−21se57913 0.0 1024362
17:00−21ese510924 0.0 1022352
20:00−21se5109686 0.1 1021387
28 february, sun
sun2823:00−20se599793 0.5 1019390
02:00−19ese5997100 0.6 1016393
05:00−18e5997100 1.4 1015390
08:00−18e5996100 0.6 1013416
11:00−16e6894100 0.9 1012490
14:00−15e5892100 0.3 1011519
17:00−15ene5893100 0.5 1011538
20:00−17ene4996100 0.3 1011355
1 march, mon
mon123:00−17ne4895100 0.4 1012367
02:00−18nne479696 0.1 1013258
05:00−21nne359894 0.1 1014103
08:00−20n369898 0.1 1015177
11:00−17n349297 0.1 1016390
14:00−15n3486100 0.1 1016517
17:00−15n2393100 0.1 1017187
20:00−18nne1197100 0.1 101720
2 march, tue
tue223:00−19nnw1198100 0.1 101820
02:00−21wnw1110080 0.1 101720
05:00−23wnw0110080 0.1 101720
08:00−23wsw1110098 0.0 101620
11:00−17ssw119295 0.1 1015230
14:00−14s2285100 0.0 1014470
17:00−14sse1192100 0.1 101334
20:00−16s2397100 0.1 101438
3 march, wed
wed323:00−20ssw339982 0.1 101424
02:00−22s33970 0.0 101426
05:00−22s34981 0.0 101441
08:00−23s349825 0.0 101462
11:00−17sse469353 0.0 1014280
14:00−14sse4791100 0.0 1013383
17:00−13sse5992100 0.0 1013442
20:00−15sse4995100 0.1 1012364